Regional Weather Roundup
Issued by NWS

Home | Current Version | Previous Version | Graphics & Text | Print | Product List | Glossary On
Versions: 1 2 3 4 5 6 7 8 9 10 11 12 13 14 15 16 17 18 19 20 21 22 23 24 25 26 27 28 29 30 31 32 33 34 35 36 37 38 39 40 41 42 43 44 45 46 47 48 49 50
000
ASUS45 KPSR 011000
RWRAZ

PRELIMINARY ARIZONA REGIONAL HOURLY WEATHER ROUNDUP
NATIONAL WEATHER SERVICE PHOENIX AZ
300 AM MST SUN FEB 01 2015

NOTE: FAIR INDICATES FEW OR NO CLOUDS BELOW 12,000 FEET WITH NO
SIGNIFICANT WEATHER AND/OR OBSTRUCTIONS TO VISIBILITY.

AZZ001>003-036-011100-
NORTHWEST ARIZONA

CITY           SKY/WX    TMP DP  RH WIND       PRES   REMARKS
KINGMAN        CLEAR     40  36  86 E6        30.07R
$$

AZZ004>008-015-016-018-011100-
NORTH CENTRAL ARIZONA

CITY           SKY/WX    TMP DP  RH WIND       PRES   REMARKS
GRAND CANYON   CLEAR     23  21  92 CALM      30.11R
PRESCOTT       CLEAR     36  32  85 SW3       30.06R
FLAGSTAFF      NOT AVBL
PAYSON         CLEAR     43  34  70 NE6G15    30.05S
$$

AZZ009>014-017-011100-
NORTHEAST ARIZONA

CITY           SKY/WX    TMP DP  RH WIND       PRES   REMARKS
WINSLOW        NOT AVBL
SAINT JOHNS    CLOUDY    37  34  89 NW7       30.04R WCI  32
WINDOW ROCK    CLEAR     31  26  82 NE5       30.04S WCI  26
$$

AZZ023-011100-
GREATER PHOENIX AREA

CITY           SKY/WX    TMP DP  RH WIND       PRES   REMARKS
PHOENIX        PTCLDY    52  50  93 NE3       29.98R
LUKE AFB       CLEAR     49  48  97 CALM      29.98R
DEER VALLEY    PTCLDY    49  48  97 E6        29.98R FOG
SCOTTSDALE     CLEAR     49  46  90 CALM      29.99S
$$

AZZ027-028-011100-
SOUTHWEST MARICOPA COUNTY AND PINAL COUNTY

CITY           SKY/WX    TMP DP  RH WIND       PRES   REMARKS
CASA GRANDE    CLEAR     46  45  93 CALM      29.99S
$$

AZZ503-504-507>509-011100-
SOUTHEAST ARIZONA

CITY           SKY/WX    TMP DP  RH WIND       PRES   REMARKS
TUCSON         LGT RAIN  51  50  96 CALM      30.01R FOG
DAVIS-MONTHAN  LGT RAIN  51  51 100 SW3       29.99S FOG
NOGALES        PTCLDY    40  38  93 S5        29.99S
SIERRA VISTA   CLEAR     41  38  89 CALM      30.00S
SAFFORD        FOG       47  46  97 SW3       29.98R VSB 1/2
$$

AZZ020-021-025-026-031-011100-
SOUTHWEST ARIZONA

CITY           SKY/WX    TMP DP  RH WIND       PRES   REMARKS
YUMA           CLEAR     55  47  74 CALM      29.97S
$$

CAZ031-033-041-043-047-048-061-011100-
SOUTHERN CALIFORNIA

CITY           SKY/WX    TMP DP  RH WIND       PRES   REMARKS
DOWNTOWN L.A.  CLEAR     54  50  86 CALM      30.00S
L.A. AIRPORT   CLEAR     54  52  93 SE3       30.01S
SAN DIEGO      CLEAR     57  50  77 CALM      30.03R
BURBANK        CLEAR     52  43  71 CALM      30.00S
ONTARIO        CLEAR     54  43  66 VRB3      30.02R
RIVERSIDE      CLEAR     53  42  66 CALM      30.03R
PALM SPRINGS   CLEAR     62  40  44 W7        30.01R
EL CENTRO NAS  CLEAR     50  41  71 W8        29.98R
IMPERIAL       CLEAR     51  43  74 W7        29.97R
BLYTHE         CLEAR     52  49  89 SW3       29.99R
$$

NVZ020-UTZ003-011100-
SOUTHERN NEVADA-UTAH

CITY           SKY/WX    TMP DP  RH WIND       PRES   REMARKS
LAS VEGAS      NOT AVBL
SALT LAKE CITY CLEAR     29  26  89 CALM      30.19S
$$

NMZ009-TXZ055-011100-
NEW MEXICO-WEST TEXAS

CITY           SKY/WX    TMP DP  RH WIND       PRES   REMARKS
ALBUQUERQUE    PTCLDY    36  31  82 N7        30.00R WCI  30
EL PASO        CLOUDY    48  42  80 VRB7      29.94R
$$


........................KEY........................
SKY/WX - SKY CONDITION/WEATHER
TMP    - TEMPERATURE IN FAHRENHEIT
DP     - DEW POINT IN FAHRENHEIT
RH     - RELATIVE HUMIDITY IN PERCENT
WIND   - DIRECTION AND SPEED IN MILES PER HOUR (MPH)
VRB    - VARIABLE WIND DIRECTION
PRES   - MEAN SEA LEVEL PRESSURE IN INCHES OF MERCURY
         F - FALLING PRESSURE   R - RISING PRESSURE
         S - STEADY PRESSURE
VSB    - VISIBILITY IN MILES
HX     - HEAT INDEX IN FAHRENHEIT
WCI    - WIND CHILL INDEX IN FAHRENHEIT
TC     - TEMPERATURE IN CELSIUS WHICH IS ALSO KNOWN AS
         TEMPERATURE IN CENTIGRADE
AFB    - AIR FORCE BASE
         LUKE AFB IS LUKE AIR FORCE BASE
         DAVIS-MONTHAN IS DAVIS-MONTHAN AIR FORCE BASE
NAS    - NAVAL AIR STATION
         EL CENTRO NAS IS EL CENTRO NAVAL AIR STATION
N/A    - NOT AVAILABLE



USA.gov is the U.S. government's official web portal to all federal, state and local government web resources and services.